TimeAKST,TemperatureF,Dew PointF,Humidity,Sea Level PressureIn,VisibilityMPH,Wind Direction,Wind SpeedMPH,Gust SpeedMPH,PrecipitationIn,Events,Conditions,WindDirDegrees,DateUTC
12:53 AM,33.1,30.9,92,29.85,10.0,NNW,4.6,-,N/A,,Clear,330,2013-02-25 09:53:00
1:53 AM,33.1,32.0,96,29.86,10.0,NNW,3.5,-,N/A,,Mostly Cloudy,340,2013-02-25 10:53:00
3:53 AM,32.0,30.0,92,29.88,10.0,NNW,3.5,-,N/A,,Overcast,340,2013-02-25 12:53:00
4:53 AM,32.0,30.0,92,29.91,10.0,NNW,3.5,-,N/A,,Clear,330,2013-02-25 13:53:00
5:53 AM,30.9,30.0,96,29.92,10.0,Calm,Calm,-,N/A,,Mostly Cloudy,0,2013-02-25 14:53:00
6:53 AM,30.0,28.9,96,29.94,10.0,Calm,Calm,-,N/A,,Scattered Clouds,0,2013-02-25 15:53:00
7:53 AM,32.0,30.9,96,29.95,10.0,Calm,Calm,-,N/A,,Overcast,0,2013-02-25 16:53:00
8:53 AM,35.1,32.0,89,29.98,10.0,ESE,3.5,-,N/A,,Mostly Cloudy,120,2013-02-25 17:53:00
9:53 AM,37.0,32.0,82,29.99,10.0,SSE,4.6,-,N/A,,Mostly Cloudy,150,2013-02-25 18:53:00
10:53 AM,39.0,32.0,76,30.01,10.0,Variable,4.6,-,N/A,,Scattered Clouds,0,2013-02-25 19:53:00
11:53 AM,39.9,30.9,70,30.02,10.0,SE,4.6,-,N/A,,Partly Cloudy,140,2013-02-25 20:53:00
12:53 PM,41.0,32.0,70,30.02,10.0,SE,6.9,-,N/A,,Partly Cloudy,140,2013-02-25 21:53:00
1:53 PM,41.0,32.0,70,30.03,10.0,SE,8.1,-,N/A,,Mostly Cloudy,130,2013-02-25 22:53:00
2:53 PM,39.9,33.1,77,30.03,10.0,ESE,9.2,-,N/A,,Overcast,120,2013-02-25 23:53:00
3:53 PM,39.9,35.1,83,30.03,9.0,SE,6.9,-,0.00,Rain,Light Rain,140,2013-02-26 00:53:00
4:53 PM,37.9,35.1,89,30.01,10.0,East,5.8,-,0.04,,Overcast,100,2013-02-26 01:53:00
5:11 PM,39.2,35.6,87,30.01,10.0,ESE,8.1,-,N/A,,Overcast,120,2013-02-26 02:11:00
5:46 PM,39.2,35.6,87,30.01,10.0,ESE,6.9,-,0.00,Rain,Light Rain,120,2013-02-26 02:46:00
5:53 PM,39.0,35.1,86,30.01,10.0,ESE,8.1,-,0.00,,Overcast,110,2013-02-26 02:53:00
6:00 PM,39.2,35.6,87,30.00,10.0,ESE,9.2,-,0.00,Rain,Light Rain,120,2013-02-26 03:00:00
6:53 PM,39.0,35.1,86,29.99,10.0,ESE,8.1,-,0.00,,Overcast,120,2013-02-26 03:53:00
7:53 PM,39.0,34.0,82,29.96,10.0,ESE,10.4,-,N/A,,Overcast,120,2013-02-26 04:53:00
8:08 PM,39.2,33.8,81,29.95,10.0,ESE,12.7,19.6,N/A,,Overcast,120,2013-02-26 05:08:00
8:53 PM,39.9,33.1,77,29.95,10.0,ESE,12.7,21.9,N/A,,Overcast,120,2013-02-26 05:53:00
9:53 PM,39.0,33.1,79,29.94,10.0,SE,16.1,28.8,0.00,Rain,Light Rain,130,2013-02-26 06:53:00
10:53 PM,39.0,32.0,76,29.93,10.0,ESE,18.4,24.2,0.00,Rain,Light Rain,120,2013-02-26 07:53:00
11:07 PM,39.2,33.8,81,29.91,10.0,ESE,19.6,31.1,0.00,Rain,Light Rain,120,2013-02-26 08:07:00
11:21 PM,39.2,30.2,70,29.90,10.0,ESE,16.1,38.0,0.00,Rain,Light Rain,120,2013-02-26 08:21:00
11:53 PM,37.9,32.0,79,29.90,10.0,North,-9999.0,-,0.00,Rain,Light Rain,0,2013-02-26 08:53:00